Location: Napier
(39.4830°S, 176.9170°E)
Time: 12:56:32
(UTC+13:00)

Meteor 2-21 - Pass Details

Date: 24 January 2019
Orbit: 933 x 967 km, 82.5° (Epoch: 21 February)

Event Time Altitude Azimuth Distance (km) Brightness Sun altitude
Exits shadow 23:43:31 69° 54° (NE) 1,005 4.3 -26.7°
Maximum altitude 23:43:56 72° 86° (E) 990 4.3 -26.8°
Drops below altitude 10° 23:50:01 10° 168° (SSE) 2,676 7.4 -27.3°
Sets 23:52:31 0° 170° (S) 3,629 8.3 -27.5°
